Tracking 27420 objects as of 11-Jun-2023
HD Live streaming from Space Station
objects crossing your sky now

STARLINK-5766

Track STARLINK-5766 now!
10-day predictions
STARLINK-5766 is classified as:


NORAD ID: 56025
Int'l Code: 2023-042AR
Perigee: 534.8 km
Apogee: 536.5 km
Inclination: 43.0 °
Period: 95.2 minutes
Semi major axis: 6906 km
RCS: Unknown
Launch date: March 24, 2022
Source: United States (US)
Launch site: AIR FORCE EASTERN TEST RANGE (AFETR)
Your satellite tracking list
Your tracking list is empty




NASA's NSSDC Master Catalog

Two Line Element Set (TLE):
1 56025U 23042AR  23161.91667824 -.00946127  00000-0 -57829-1 0  9998
2 56025  42.9975  92.3755 0001203 256.9715  25.6453 15.12513892 12553
Source of the keplerian elements: AFSPC